Showing default

COSMOS 88, 1586

Orbit data source: Space-Track

COSMOS 88, 1586 is a payload satellite owned by OKB-10 (CIS) in LEO that was launched on Sat, 18 Sep 1965 UTC via a KOSMOS 65S3 launch vehicle from the Tyuratam Missile And Space Complex (TTMTR). Payload-class satellites include a variety of spacecraft equipped with specific instruments for various scientific and technological missions. These include communications satellites like Starlink; space stations such as the ISS; scientific satellites like the Hubble; Earth observation satellites from companies like Planet Labs, Umbra, and HawkEye 360; GPS; miniature CubeSats for education and research; and military/defense satellites.

Loading next visibility...
Identifier
1586, 1965-073C
Orbit
LEO
Country
Flag of CISCIS
Related business
Manufacturer
OKB-10
Mission
Spacecraft
Bus & Motor
STRELA-1 11F610, Unknown motor
Mass
50 kg wet, 50 kg dry
Launch date (UTC)
1965-09-18 (61 years ago)
Launch vehicle
KOSMOS 65S3
Launch site
Tyuratam Missile And Space Complex (TTMTR)
Object type
Payload
Rocket body
Debris
Shape & HBR
Unknown
Radar Cross Section
Medium (>0.1 m² and <1 m²)

Expand to show TLE details & history
Last TLE update: 17 hours ago

TLE from 17 hours ago
0 COSMOS 88
1 01586U 65073C   26119.33588022 -.00000067  00000-0  18515-3 0  9998
2 01586  56.0572 152.9121 0189686 102.8461 274.1529 12.43344645752424
Epoch: 2026-04-29T08:03Z
TLE epoch observation values (Epoch: 2026-04-29T08:03:40.051Z)
Latitude
12.24962°
Longitude
-176.94181°
Altitude
1,484.771 km
Speed
7.127 km/s
True Right ascension
10h 45m 05s
True Declination
12° 11' 06"
Sunlit
Object was in daylight at epoch
Visualization orbit readout
Latitude
Unknown
Longitude
Unknown
Altitude
Unknown
Speed
Unknown
Apparent Right ascension
Unknown
Apparent Declination
Unknown
Sunlit
N/A
Visualization observer readout
Local Sidereal Time
08:36:52
Azimuth
Unknown
Elevation
Unknown
Doppler factor
Unknown
Orbital elements
Apogee altitude
1,641.571 km
Perigee altitude
1,342.99 km
Semi-major axis
7,870.417 km
Eccentricity
0.01897
Inclination
56.0572°
RAAN
152.9121°
Arg. of periapsis
102.8461°
True anomaly
271.98176°
Mean anomaly
274.1529°
Eccentric anomaly
273.06764°
Mean motion
3.10847 °/min
Orbital period
115.81 mins
BSTAR
0.00018515
Loading maneuver chart data...
Computing Atmospheric mass density...
Loading historical data...
Loading historical data...
Loading historical data...
Loading historical data...
Loading historical data...
Loading historical data...
Loading historical data...

Documentation

Showing up to 5 results
|